Agua Colorada, Mexico

12:53 PM CDT on August 20, 2017 (GMT -0500)
De Guanajuato International | | Change Station

Elev 5968 ft 21.00 °N, 101.48 °W | Updated 1 hour ago

Clear
Clear
72 °F
Feels Like 72 °F
N
5
Wind Variable Wind from SSW

Today
High -- | Low -- °F
--% Chance of Precip.
Yesterday
High -- | Low -- °F
Precip. -- in
Pressure 30.32 in
Visibility 8.0 miles
Clouds Clear
Dew Point 54 °F
Humidity 53%
Rainfall 0.00 in
Snow Depth Not available.
7:25 AM 8:10 PM
Waning Crescent, 1% visible
METAR MMLO 201643Z 20004KT 8SM SKC 22/12 A3032 RMK HZY
Pressure 30.32 in
Visibility 8.0 miles
Clouds Clear
Dew Point 54 °F
Humidity 53%
Rainfall 0.00 in
Snow Depth Not available.
7:25 AM 8:10 PM
Waning Crescent, 1% visible
METAR MMLO 201643Z 20004KT 8SM SKC 22/12 A3032 RMK HZY

Get Severe Weather Alerts

Thanks for signing up!

Be on the lookout for a verification email in your inbox.

You'll start receiving the daily forecast at 6 AM.

×

10-Day Weather Forecast

No radar image for this location.
×

Almanac

Astronomy

Aug. 20, 2017 Rise Set
Actual Time
Civil Twilight
Nautical Twilight
Astronomical Twilight
Moon
Length of Visible Light
Length of Day
Tomorrow will be .
, % of the Moon is Illuminated

Today's Extremes

Country Highs Country Lows

Community

WunderPhotos

Category 6

Welcome to Category 6. This is the collective home for Weather Underground's featured writeups by Dr. Jeff Masters (right), Bob Henson (left), Chris Burt, and other regular contributors.

Nearby

Air Quality

  Air Quality AQ Index Pollutant
Not available.

Snow Depth

Station Depth Elevation

Earthquake Activity

City Distance Mag. Time & Date
Minimum magnitude displayed is 2.5.

Coastal Water Temperatures

Place Temperature

Stations

Nearby Weather Stations

Station Location Temp. Windchill Dew Point Humidity Wind Precip. Elev Updated Type